Time,TemperatureF,DewpointF,PressureIn,WindDirection,WindDirectionDegrees,WindSpeedMPH,WindSpeedGustMPH,Humidity,HourlyPrecipIn,Conditions,Clouds,dailyrainin,SoftwareType,DateUTC
2013-07-02 00:01:00,76.0,38.0,30.19,NW,311,5.0,6.0,25,0.00,,,0.00,,2013-07-02 06:01:00,
2013-07-02 00:11:00,75.0,37.0,30.18,SW,221,3.0,5.0,25,0.00,,,0.00,,2013-07-02 06:11:00,
2013-07-02 00:33:00,78.0,35.0,30.18,SW,221,1.0,2.0,21,0.00,,,0.00,,2013-07-02 06:33:00,
2013-07-02 00:43:00,79.0,36.0,30.18,SW,221,0.0,1.0,21,0.00,,,0.00,,2013-07-02 06:43:00,
2013-07-02 01:01:00,77.0,35.0,30.18,NW,315,5.0,8.0,22,0.00,,,0.00,,2013-07-02 07:01:00,
2013-07-02 01:11:00,78.0,36.0,30.18,NW,316,6.0,8.0,22,0.00,,,0.00,,2013-07-02 07:11:00,
2013-07-02 01:22:00,77.0,36.0,30.18,WNW,302,8.0,9.0,23,0.00,,,0.00,,2013-07-02 07:22:00,
2013-07-02 01:33:00,75.0,37.0,30.18,WNW,291,1.0,7.0,25,0.00,,,0.00,,2013-07-02 07:33:00,
2013-07-02 01:44:00,74.0,37.0,30.18,SW,215,3.0,6.0,26,0.00,,,0.00,,2013-07-02 07:44:00,
2013-07-02 02:02:00,73.0,38.0,30.18,WSW,252,2.0,5.0,28,0.00,,,0.00,,2013-07-02 08:02:00,
2013-07-02 02:11:00,73.0,38.0,30.19,WSW,252,1.0,4.0,28,0.00,,,0.00,,2013-07-02 08:11:00,
2013-07-02 02:22:00,73.0,37.0,30.18,West,278,2.0,4.0,27,0.00,,,0.00,,2013-07-02 08:22:00,
2013-07-02 02:33:00,73.0,37.0,30.19,West,278,0.0,3.0,27,0.00,,,0.00,,2013-07-02 08:33:00,
2013-07-02 02:44:00,73.0,37.0,30.18,West,279,2.0,4.0,27,0.00,,,0.00,,2013-07-02 08:44:00,
2013-07-02 02:52:00,73.0,37.0,30.18,West,279,0.0,2.0,27,0.00,,,0.00,,2013-07-02 08:52:00,
2013-07-02 03:01:00,73.0,37.0,30.18,West,279,0.0,1.0,27,0.00,,,0.00,,2013-07-02 09:01:00,
2013-07-02 03:11:00,73.0,38.0,30.18,West,279,0.0,3.0,28,0.00,,,0.00,,2013-07-02 09:11:00,
2013-07-02 03:22:00,73.0,38.0,30.18,West,279,0.0,1.0,28,0.00,,,0.00,,2013-07-02 09:22:00,
2013-07-02 03:33:00,73.0,38.0,30.18,West,279,0.0,1.0,28,0.00,,,0.00,,2013-07-02 09:33:00,
2013-07-02 03:43:00,73.0,37.0,30.18,West,279,0.0,2.0,27,0.00,,,0.00,,2013-07-02 09:43:00,
2013-07-02 03:52:00,73.0,39.0,30.18,West,279,0.0,2.0,29,0.00,,,0.00,,2013-07-02 09:52:00,
2013-07-02 04:01:00,72.0,38.0,30.18,West,279,0.0,2.0,29,0.00,,,0.00,,2013-07-02 10:01:00,
2013-07-02 04:33:00,73.0,38.0,30.18,West,279,0.0,2.0,28,0.00,,,0.00,,2013-07-02 10:33:00,
2013-07-02 04:43:00,73.0,37.0,30.18,West,279,0.0,1.0,27,0.00,,,0.00,,2013-07-02 10:43:00,
2013-07-02 05:42:00,72.0,38.0,30.19,West,279,0.0,0.0,29,0.00,,,0.00,,2013-07-02 11:42:00,
2013-07-02 05:52:00,71.0,38.0,30.19,West,279,0.0,0.0,30,0.00,,,0.00,,2013-07-02 11:52:00,
2013-07-02 06:01:00,70.0,39.0,30.19,West,279,1.0,3.0,32,0.00,,,0.00,,2013-07-02 12:01:00,
2013-07-02 06:11:00,70.0,39.0,30.19,West,279,0.0,2.0,32,0.00,,,0.00,,2013-07-02 12:11:00,
2013-07-02 08:33:00,72.0,46.0,30.21,SW,225,5.0,7.0,40,0.00,,,0.00,,2013-07-02 14:33:00,
2013-07-02 08:43:00,70.0,46.0,30.22,SW,234,4.0,7.0,43,0.00,,,0.00,,2013-07-02 14:43:00,
2013-07-02 08:53:00,70.0,46.0,30.22,SW,234,2.0,5.0,42,0.00,,,0.00,,2013-07-02 14:53:00,
2013-07-02 09:02:00,71.0,46.0,30.21,SW,234,0.0,4.0,41,0.00,,,0.00,,2013-07-02 15:02:00,
2013-07-02 09:11:00,74.0,47.0,30.21,SW,234,0.0,1.0,39,0.00,,,0.00,,2013-07-02 15:11:00,
2013-07-02 10:01:00,77.0,47.0,30.21,WSW,239,4.0,6.0,35,0.00,,,0.00,,2013-07-02 16:01:00,
2013-07-02 10:11:00,76.0,46.0,30.21,SW,231,3.0,6.0,34,0.00,,,0.00,,2013-07-02 16:11:00,
2013-07-02 10:21:00,76.0,47.0,30.21,SW,231,3.0,5.0,36,0.00,,,0.00,,2013-07-02 16:21:00,
2013-07-02 10:43:00,78.0,51.0,30.21,SW,219,2.0,5.0,39,0.00,,,0.00,,2013-07-02 16:43:00,
2013-07-02 10:52:00,79.0,50.0,30.21,WSW,244,3.0,5.0,37,0.00,,,0.00,,2013-07-02 16:52:00,
2013-07-02 11:02:00,79.0,47.0,30.21,WSW,248,1.0,4.0,33,0.00,,,0.00,,2013-07-02 17:02:00,
2013-07-02 11:43:00,83.0,51.0,30.21,West,273,3.0,6.0,33,0.00,,,0.00,,2013-07-02 17:43:00,
2013-07-02 11:53:00,82.0,51.0,30.21,West,264,7.0,10.0,34,0.00,,,0.00,,2013-07-02 17:53:00,
2013-07-02 12:01:00,81.0,52.0,30.21,SW,232,6.0,10.0,36,0.00,,,0.00,,2013-07-02 18:01:00,
2013-07-02 12:34:00,83.0,50.0,30.21,West,276,3.0,16.0,32,0.00,,,0.00,,2013-07-02 18:34:00,
2013-07-02 12:43:00,85.0,47.0,30.21,NW,308,2.0,8.0,27,0.00,,,0.00,,2013-07-02 18:43:00,
2013-07-02 12:53:00,85.0,48.0,30.21,NW,313,4.0,10.0,28,0.00,,,0.00,,2013-07-02 18:53:00,
2013-07-02 13:01:00,86.0,47.0,30.20,NW,304,6.0,9.0,26,0.00,,,0.00,,2013-07-02 19:01:00,
2013-07-02 13:11:00,86.0,49.0,30.20,NW,312,4.0,9.0,28,0.00,,,0.00,,2013-07-02 19:11:00,
2013-07-02 13:22:00,86.0,47.0,30.20,NW,320,2.0,14.0,26,0.00,,,0.00,,2013-07-02 19:22:00,
2013-07-02 13:33:00,86.0,45.0,30.20,NW,313,8.0,14.0,24,0.00,,,0.00,,2013-07-02 19:33:00,
2013-07-02 13:43:00,86.0,45.0,30.19,NNE,28,0.0,11.0,24,0.00,,,0.00,,2013-07-02 19:43:00,
2013-07-02 13:53:00,87.0,50.0,30.20,NW,313,2.0,12.0,28,0.00,,,0.00,,2013-07-02 19:53:00,
2013-07-02 14:01:00,87.0,49.0,30.19,NNW,332,0.0,11.0,27,0.00,,,0.00,,2013-07-02 20:01:00,
2013-07-02 14:11:00,87.0,49.0,30.19,NW,313,8.0,14.0,27,0.00,,,0.00,,2013-07-02 20:11:00,
2013-07-02 14:33:00,87.0,47.0,30.19,North,360,1.0,12.0,25,0.00,,,0.00,,2013-07-02 20:33:00,
2013-07-02 14:43:00,88.0,48.0,30.18,NW,306,3.0,9.0,25,0.00,,,0.00,,2013-07-02 20:43:00,
2013-07-02 15:01:00,88.0,46.0,30.17,ENE,76,5.0,10.0,23,0.00,,,0.00,,2013-07-02 21:01:00,
2013-07-02 15:11:00,90.0,47.0,30.17,West,278,3.0,11.0,23,0.00,,,0.00,,2013-07-02 21:11:00,
2013-07-02 15:43:00,88.0,39.0,30.17,NW,321,2.0,7.0,18,0.00,,,0.00,,2013-07-02 21:43:00,
2013-07-02 16:01:00,87.0,44.0,30.16,NW,325,6.0,11.0,22,0.00,,,0.00,,2013-07-02 22:01:00,
2013-07-02 16:33:00,86.0,45.0,30.15,NW,307,6.0,10.0,24,0.00,,,0.00,,2013-07-02 22:33:00,
2013-07-02 16:43:00,87.0,47.0,30.15,NW,311,1.0,5.0,25,0.00,,,0.00,,2013-07-02 22:43:00,
2013-07-02 17:01:00,86.0,48.0,30.15,NW,319,1.0,3.0,27,0.00,,,0.00,,2013-07-02 23:01:00,
2013-07-02 17:11:00,85.0,48.0,30.15,NW,319,1.0,3.0,28,0.00,,,0.00,,2013-07-02 23:11:00,
2013-07-02 17:22:00,84.0,48.0,30.15,NW,323,1.0,4.0,29,0.00,,,0.00,,2013-07-02 23:22:00,
2013-07-02 17:33:00,83.0,50.0,30.15,NW,321,2.0,4.0,32,0.00,,,0.00,,2013-07-02 23:33:00,
2013-07-02 17:43:00,82.0,50.0,30.14,NW,321,0.0,5.0,33,0.00,,,0.00,,2013-07-02 23:43:00,
2013-07-02 17:52:00,81.0,52.0,30.14,NW,321,0.0,2.0,37,0.00,,,0.00,,2013-07-02 23:52:00,
2013-07-02 18:01:00,81.0,52.0,30.14,NW,321,0.0,0.0,37,0.00,,,0.00,,2013-07-03 00:01:00,
2013-07-02 18:11:00,80.0,51.0,30.14,NW,321,0.0,0.0,37,0.00,,,0.00,,2013-07-03 00:11:00,
2013-07-02 18:33:00,80.0,51.0,30.13,WNW,302,1.0,3.0,36,0.00,,,0.00,,2013-07-03 00:33:00,
2013-07-02 18:44:00,80.0,51.0,30.13,WNW,302,1.0,3.0,37,0.00,,,0.00,,2013-07-03 00:44:00,
2013-07-02 18:52:00,80.0,51.0,30.13,WNW,302,2.0,5.0,36,0.00,,,0.00,,2013-07-03 00:52:00,
2013-07-02 19:01:00,80.0,51.0,30.13,WNW,302,4.0,5.0,36,0.00,,,0.00,,2013-07-03 01:01:00,
2013-07-02 19:11:00,80.0,51.0,30.13,WNW,302,4.0,5.0,36,0.00,,,0.00,,2013-07-03 01:11:00,
2013-07-02 19:32:00,79.0,52.0,30.14,West,281,6.0,10.0,39,0.00,,,0.00,,2013-07-03 01:32:00,
2013-07-02 19:42:00,79.0,53.0,30.15,WNW,286,7.0,10.0,40,0.00,,,0.00,,2013-07-03 01:42:00,
2013-07-02 19:52:00,79.0,51.0,30.16,West,281,7.0,14.0,38,0.00,,,0.00,,2013-07-03 01:52:00,
2013-07-02 20:02:00,79.0,47.0,30.16,WNW,302,10.0,18.0,33,0.00,,,0.00,,2013-07-03 02:02:00,
2013-07-02 20:11:00,78.0,47.0,30.16,West,272,8.0,22.0,33,0.00,,,0.00,,2013-07-03 02:11:00,
2013-07-02 20:43:00,75.0,42.0,30.15,West,273,8.0,15.0,31,0.00,,,0.00,,2013-07-03 02:43:00,
2013-07-02 20:52:00,75.0,42.0,30.15,West,271,7.0,11.0,31,0.00,,,0.00,,2013-07-03 02:52:00,
2013-07-02 21:02:00,75.0,42.0,30.15,West,271,8.0,11.0,31,0.00,,,0.00,,2013-07-03 03:02:00,
2013-07-02 21:11:00,75.0,41.0,30.15,WNW,302,9.0,10.0,29,0.00,,,0.00,,2013-07-03 03:11:00,
2013-07-02 21:23:00,75.0,43.0,30.14,NW,304,7.0,11.0,32,0.00,,,0.00,,2013-07-03 03:23:00,
2013-07-02 21:33:00,76.0,41.0,30.14,WNW,290,9.0,10.0,28,0.00,,,0.00,,2013-07-03 03:33:00,
2013-07-02 21:43:00,76.0,40.0,30.14,NW,318,8.0,11.0,27,0.00,,,0.00,,2013-07-03 03:43:00,
2013-07-02 21:52:00,76.0,41.0,30.15,NW,307,10.0,13.0,28,0.00,,,0.00,,2013-07-03 03:52:00,
2013-07-02 22:01:00,75.0,40.0,30.16,NW,311,6.0,13.0,28,0.00,,,0.00,,2013-07-03 04:01:00,
2013-07-02 22:11:00,75.0,41.0,30.16,NW,311,1.0,9.0,29,0.00,,,0.00,,2013-07-03 04:11:00,
2013-07-02 22:22:00,75.0,41.0,30.16,WNW,298,0.0,7.0,29,0.00,,,0.00,,2013-07-03 04:22:00,
2013-07-02 22:33:00,75.0,41.0,30.16,WNW,298,0.0,7.0,29,0.00,,,0.00,,2013-07-03 04:33:00,
2013-07-02 22:52:00,74.0,44.0,30.19,NW,319,6.0,11.0,34,0.00,,,0.00,,2013-07-03 04:52:00,
2013-07-02 23:01:00,73.0,44.0,30.19,NW,309,2.0,8.0,35,0.00,,,0.00,,2013-07-03 05:01:00,
2013-07-02 23:11:00,73.0,44.0,30.18,NW,307,1.0,8.0,35,0.00,,,0.00,,2013-07-03 05:11:00,
2013-07-02 23:32:00,73.0,43.0,30.16,NW,307,1.0,4.0,34,0.00,,,0.00,,2013-07-03 05:32:00,
2013-07-02 23:43:00,74.0,44.0,30.16,WNW,295,6.0,8.0,34,0.00,,,0.00,,2013-07-03 05:43:00,
2013-07-02 23:52:00,75.0,41.0,30.14,WSW,249,7.0,13.0,30,0.00,,,0.00,,2013-07-03 05:52:00,